Tony, WI

5:11 PM CST on February 24, 2017 (GMT -0600)
Rusk County

Weather History for KRCX - November, 2013

Change the Weather History Date:

Wednesday, November 20, 2013

  Actual Average (KPBH) Record (KPBH)
Temperature  
Mean Temperature 36 °F -  
Max Temperature 39 °F 35 °F 53 °F (2012)
Min Temperature 33 °F 22 °F -12 °F (2014)
Degree Days  
Heating Degree Days 29    
Moisture  
Dew Point 27 °F    
Average Humidity 72    
Maximum Humidity 96    
Minimum Humidity 53    
Precipitation  
Precipitation 0.03 in - - ()
Sea Level Pressure  
Sea Level Pressure 30.03 in    
Wind  
Wind Speed 11 mph (SSE)    
Max Wind Speed 16 mph    
Max Gust Speed 24 mph    
Visibility 8 miles    
Events Rain , Snow    
Averages and records for this station are not official NWS values.
T = Trace of Precipitation, MM = Missing Value Source: NWS Daily Summary

Daily Weather History Graph

Daily Weather History Graph

Search for Another Location

Airport or City:

Trip Planner

Search our weather history database for the weather conditions in past years. The results will help you decide how hot, cold, wet, or windy it might be!

Date:

Astronomy

Nov. 20, 2013 Rise Set
Actual Time 7:10 AM CST 4:28 PM CST
Civil Twilight 6:37 AM CST 5:01 PM CST
Nautical Twilight 6:01 AM CST 5:37 PM CST
Astronomical Twilight 5:26 AM CST 6:12 PM CST
Moon 7:11 PM CST (11/20) 9:35 AM CST (11/20)
Length of Visible Light 10h 23m
Length of Day
9h 18m
Waning Gibbous, 91% of the Moon is Illuminated
Nov 20
Waning Gibbous
Nov 25
Last Quarter
Dec 2
New
Dec 9
First Quarter
Dec 17
Full

Hourly Weather History & Observations

Time (CST) Temp. Windchill Dew Point Humidity Pressure Visibility Wind Dir Wind Speed Gust Speed Precip Events Conditions
12:15 AM 36.7 °F 29.4 °F 21.7 °F 55% 30.05 in 10.0 mi SSE 10.4 mph 16.1 mph N/A   Overcast
12:35 AM 36.9 °F 29.6 °F 21.6 °F 54% 30.04 in 10.0 mi SSE 10.4 mph 16.1 mph N/A   Overcast
12:55 AM 37.0 °F 29.3 °F 21.6 °F 54% 30.04 in 10.0 mi SSE 11.5 mph 16.1 mph N/A   Overcast
1:15 AM 37.4 °F 29.3 °F 21.6 °F 53% 30.04 in 10.0 mi SSE 12.7 mph 18.4 mph N/A   Overcast
1:35 AM 37.4 °F 29.3 °F 21.9 °F 54% 30.05 in 10.0 mi SSE 12.7 mph 18.4 mph N/A   Overcast
1:55 AM 37.4 °F 29.8 °F 22.1 °F 54% 30.05 in 10.0 mi SSE 11.5 mph 16.1 mph N/A   Overcast
2:15 AM 37.4 °F 30.8 °F 22.6 °F 55% 30.05 in 10.0 mi SSE 9.2 mph - N/A   Overcast
2:35 AM 37.6 °F 30.5 °F 22.6 °F 55% 30.05 in 10.0 mi SSE 10.4 mph 17.3 mph N/A   Overcast
2:55 AM 37.8 °F 29.8 °F 22.8 °F 55% 30.05 in 10.0 mi SSE 12.7 mph 18.4 mph N/A   Overcast
3:15 AM 37.8 °F 30.2 °F 23.0 °F 55% 30.04 in 10.0 mi SSE 11.5 mph 19.6 mph N/A   Overcast
3:35 AM 37.6 °F 30.5 °F 23.7 °F 57% 30.04 in 10.0 mi SSE 10.4 mph 17.3 mph N/A   Overcast
3:55 AM 37.4 °F 28.9 °F 24.1 °F 59% 30.04 in 10.0 mi SSE 13.8 mph 18.4 mph N/A   Overcast
4:15 AM 37.4 °F 29.3 °F 24.1 °F 59% 30.03 in 10.0 mi SSE 12.7 mph 19.6 mph N/A   Overcast
4:35 AM 37.8 °F 29.8 °F 23.9 °F 57% 30.03 in 10.0 mi SSE 12.7 mph 19.6 mph N/A   Overcast
4:55 AM 38.3 °F 30.1 °F 23.5 °F 55% 30.02 in 10.0 mi SSE 13.8 mph 23.0 mph N/A   Overcast
5:15 AM 38.3 °F 30.5 °F 23.0 °F 54% 30.01 in 10.0 mi SSE 12.7 mph 24.2 mph N/A   Overcast
5:35 AM 38.3 °F 30.5 °F 23.0 °F 54% 30.01 in 10.0 mi SSE 12.7 mph 19.6 mph N/A   Overcast
5:55 AM 38.3 °F 29.7 °F 22.8 °F 54% 30.00 in 10.0 mi SSE 15.0 mph 20.7 mph N/A   Overcast
6:15 AM 38.3 °F 30.5 °F 22.8 °F 54% 30.02 in 10.0 mi SSE 12.7 mph 19.6 mph N/A   Overcast
6:35 AM 38.3 °F 29.3 °F 23.0 °F 54% 30.01 in 10.0 mi SSE 16.1 mph 19.6 mph N/A   Overcast
6:55 AM 37.6 °F 29.1 °F 24.8 °F 60% 30.01 in 10.0 mi SSE 13.8 mph 19.6 mph N/A Rain Light Rain
7:15 AM 37.9 °F 29.2 °F 23.9 °F 57% 30.01 in 10.0 mi SE 15.0 mph 19.6 mph N/A   Overcast
7:35 AM 37.9 °F 30.5 °F 23.9 °F 57% 30.03 in 10.0 mi SSE 11.5 mph 18.4 mph N/A   Overcast
7:55 AM 37.9 °F 30.9 °F 23.9 °F 57% 30.03 in 10.0 mi SSE 10.4 mph 16.1 mph N/A   Overcast
8:15 AM 37.8 °F 30.2 °F 24.6 °F 59% 30.03 in 10.0 mi SSE 11.5 mph - N/A   Overcast
8:35 AM 37.8 °F 30.2 °F 24.6 °F 59% 30.03 in 10.0 mi SSE 11.5 mph 19.6 mph N/A   Overcast
8:55 AM 37.9 °F 30.0 °F 24.6 °F 59% 30.03 in 10.0 mi SSE 12.7 mph 21.9 mph N/A   Overcast
9:15 AM 38.3 °F 29.7 °F 24.6 °F 58% 30.03 in 10.0 mi SSE 15.0 mph 20.7 mph N/A   Overcast
9:35 AM 38.3 °F 30.1 °F 24.8 °F 58% 30.04 in 10.0 mi SSE 13.8 mph 20.7 mph N/A   Overcast
9:55 AM 38.3 °F 31.9 °F 24.8 °F 58% 30.05 in 10.0 mi SSE 9.2 mph 17.3 mph N/A   Overcast
10:15 AM 38.3 °F 30.9 °F 25.0 °F 59% 30.05 in 10.0 mi SSE 11.5 mph 17.3 mph N/A   Overcast
10:35 AM 38.8 °F 30.8 °F 25.2 °F 58% 30.05 in 10.0 mi SSE 13.8 mph 18.4 mph N/A   Overcast
10:55 AM 39.6 °F 31.0 °F 24.8 °F 56% 30.05 in 10.0 mi SSE 16.1 mph 24.2 mph N/A   Overcast
11:15 AM 39.6 °F 31.3 °F 24.6 °F 55% 30.04 in 10.0 mi SSE 15.0 mph 23.0 mph N/A   Overcast
11:35 AM 39.2 °F 31.2 °F 25.2 °F 57% 30.04 in 10.0 mi SSE 13.8 mph 20.7 mph N/A   Overcast
11:55 AM 39.2 °F 32.0 °F 25.3 °F 58% 30.03 in 10.0 mi SSE 11.5 mph 18.4 mph N/A   Overcast
12:15 PM 39.2 °F 32.5 °F 26.2 °F 60% 30.03 in 10.0 mi SSE 10.4 mph - N/A   Overcast
12:35 PM 38.7 °F 32.4 °F 26.4 °F 61% 30.03 in 10.0 mi SSE 9.2 mph - N/A   Overcast
12:55 PM 38.7 °F 30.9 °F 26.6 °F 62% 30.02 in 10.0 mi SSE 12.7 mph 18.4 mph N/A   Overcast
1:15 PM 38.3 °F 31.4 °F 27.5 °F 65% 30.02 in 10.0 mi SSE 10.4 mph 21.9 mph N/A   Overcast
1:35 PM 37.9 °F 28.9 °F 27.9 °F 67% 30.01 in 10.0 mi SSE 16.1 mph 20.7 mph N/A   Overcast
1:55 PM 36.9 °F 27.8 °F 29.5 °F 75% 30.02 in 10.0 mi SSE 15.0 mph 21.9 mph N/A   Overcast
2:15 PM 36.0 °F 26.3 °F 30.2 °F 80% 30.02 in 10.0 mi SSE 16.1 mph 20.7 mph N/A   Overcast
2:35 PM 34.9 °F 26.2 °F 30.7 °F 85% 30.02 in 7.0 mi SSE 12.7 mph 19.6 mph N/A   Overcast
2:55 PM 34.2 °F 27.5 °F 31.1 °F 89% 30.02 in 5.0 mi SSE 8.1 mph - N/A Snow Light Snow
3:15 PM 34.0 °F 26.0 °F 31.6 °F 91% 30.02 in 5.0 mi SSE 10.4 mph - N/A   Overcast
3:35 PM 33.8 °F 26.4 °F 31.8 °F 92% 30.02 in 7.0 mi SSE 9.2 mph - N/A   Light Drizzle
3:55 PM 33.8 °F 27.7 °F 32.0 °F 93% 30.02 in 5.0 mi SSE 6.9 mph 16.1 mph N/A   Overcast
4:15 PM 33.8 °F 26.4 °F 32.0 °F 93% 30.03 in 7.0 mi SE 9.2 mph - N/A   Overcast
4:35 PM 33.8 °F 25.8 °F 32.0 °F 93% 30.03 in 7.0 mi SE 10.4 mph - N/A   Overcast
4:55 PM 33.8 °F 26.4 °F 32.0 °F 93% 30.03 in 5.0 mi SE 9.2 mph - N/A   Overcast
5:15 PM 33.4 °F 26.6 °F 32.0 °F 94% 30.03 in 7.0 mi SE 8.1 mph - N/A   Overcast
5:35 PM 33.8 °F 27.7 °F 32.0 °F 93% 30.03 in 5.0 mi SSE 6.9 mph - N/A Snow Light Snow
5:55 PM 33.6 °F 27.5 °F 32.0 °F 94% 30.02 in 5.0 mi SE 6.9 mph - N/A Snow Light Snow
6:15 PM 33.8 °F 28.6 °F 32.0 °F 93% 30.03 in 7.0 mi SSE 5.8 mph - N/A Rain Light Rain
6:35 PM 33.8 °F 26.4 °F 32.0 °F 93% 30.02 in 5.0 mi SE 9.2 mph - N/A Snow Light Snow
6:55 PM 33.8 °F 28.6 °F 32.0 °F 93% 30.03 in 4.0 mi SSE 5.8 mph - N/A Snow Light Snow
7:15 PM 33.8 °F 27.0 °F 32.0 °F 93% 30.03 in 5.0 mi SSE 8.1 mph - N/A Snow Light Snow
7:35 PM 33.8 °F 27.7 °F 32.0 °F 93% 30.04 in 2.5 mi SSE 6.9 mph - N/A Snow Light Snow
7:55 PM 33.3 °F 27.9 °F 32.0 °F 95% 30.05 in 2.0 mi SSE 5.8 mph - N/A   Overcast
8:15 PM 33.3 °F 27.9 °F 32.0 °F 95% 30.05 in 2.0 mi SSE 5.8 mph - 0.01 in   Overcast
8:35 PM 33.1 °F 28.7 °F 32.0 °F 96% 30.05 in 3.0 mi SE 4.6 mph - 0.01 in Rain Light Rain
8:55 PM 33.3 °F 28.9 °F 32.0 °F 95% 30.06 in 4.0 mi SE 4.6 mph - 0.01 in Snow Light Snow
9:15 PM 33.3 °F 27.9 °F 32.0 °F 95% 30.06 in 2.0 mi SSE 5.8 mph - 0.01 in Snow Light Snow
9:35 PM 33.3 °F 28.9 °F 32.2 °F 96% 30.05 in 2.5 mi SSE 4.6 mph - 0.02 in   Overcast
9:55 PM 33.3 °F 27.9 °F 32.2 °F 96% 30.05 in 4.0 mi SE 5.8 mph - 0.02 in Snow Light Snow
10:15 PM 33.3 °F 28.9 °F 32.0 °F 95% 30.05 in 5.0 mi SSE 4.6 mph - N/A Snow Light Snow
10:35 PM 33.4 °F 28.1 °F 32.2 °F 95% 30.05 in 5.0 mi SSE 5.8 mph - N/A Snow Light Snow
10:55 PM 33.6 °F 29.4 °F 32.2 °F 94% 30.06 in 7.0 mi SSE 4.6 mph - N/A   Overcast
11:15 PM 33.8 °F 29.6 °F 32.2 °F 94% 30.06 in 7.0 mi SSE 4.6 mph - N/A   Overcast
11:35 PM 33.8 °F 28.6 °F 32.2 °F 94% 30.06 in 7.0 mi SSE 5.8 mph - N/A   Overcast
11:55 PM 33.8 °F 29.6 °F 32.2 °F 94% 30.06 in 5.0 mi SSE 4.6 mph - N/A   Overcast